Location: Unspecified
(0.0000°N, 0.0000°E)
Time: 17:52:41
(UTC+00:00)

Altair - Visible Passes

Search period start: 30 September 2014 00:00
Search period end: 10 October 2014 00:00
Orbit: 1501 x 1682 km, 47.2° (Epoch: 29 September)

Date Brightness Start Highest point End Pass type
(mag) Time Alt. Az. Time Alt. Az. Time Alt. Az.
30 Sep 10.0 04:46:15 10° SSE 04:49:17 12° SE 04:52:20 10° ESE visible
30 Sep 7.8 19:35:30 10° NW 19:44:44 60° SW 19:52:04 17° SSE visible
01 Oct 7.7 19:10:15 10° NW 19:19:37 68° SW 19:28:45 10° SSE visible
01 Oct 9.7 21:22:46 10° WSW 21:24:39 11° SW 21:26:32 10° SSW visible
02 Oct 7.6 18:45:02 10° NW 18:54:30 76° SW 19:03:43 10° SE visible
02 Oct 9.6 20:55:43 10° WSW 20:59:24 13° SW 21:03:06 10° SSW visible
03 Oct 7.6 18:19:50 10° NW 18:29:23 84° SW 18:38:39 10° SE visible
03 Oct 9.6 20:29:22 10° WSW 20:34:11 15° SW 20:38:59 10° SSW visible
04 Oct 8.8 05:04:51 10° SSW 05:13:51 43° SE 05:23:05 10° ENE visible
04 Oct 7.6 17:54:41 10° NW 18:04:16 87° NE 18:13:33 10° SE visible
04 Oct 9.6 20:03:18 10° W 20:08:59 18° SW 20:14:37 10° S visible
05 Oct 8.9 04:39:58 10° SSW 04:48:41 38° SE 04:57:38 10° ENE visible
05 Oct 9.5 19:37:24 10° W 19:43:47 20° SW 19:50:07 10° S visible
06 Oct 9.0 04:15:07 10° SSW 04:23:31 34° SE 04:32:07 10° ENE visible
06 Oct 9.4 19:11:38 10° W 19:18:36 23° SW 19:25:30 10° S visible
07 Oct 9.1 03:50:19 10° S 03:58:21 30° SE 04:06:33 10° ENE visible
07 Oct 9.3 18:45:57 10° WNW 18:53:26 26° SW 19:00:49 10° S visible
08 Oct 9.2 03:25:34 10° S 03:33:10 26° SE 03:40:55 10° ENE visible
08 Oct 9.3 18:20:21 10° WNW 18:28:17 30° SW 18:36:04 10° S visible
09 Oct 9.3 03:00:53 10° S 03:07:59 23° SE 03:15:12 10° E visible
09 Oct 7.6 05:03:03 10° SW 05:12:39 74° NW 05:22:37 10° NNE visible
